www.pogodaiklimat.ru

Погода и климат >> Архив погоды >> Россия >> Пермский край >> Бисер


АРХИВ ПОГОДЫ в Бисере

Время (UTC), дата Ветер
(напр.,м/с)
 
Видим.   Явления Облачность Т
(С)
Тd
(С)
f
(%)
Тe
(С)
Тes
(С)
Комфортность P
(гПа)
Po
(гПа)
Тmin
(С)
Tmax
(С)
R
(мм)
R24
(мм)
S
(см)
12 13.06 СЗ 6-11
{14}
50 км в посл. час ливневой дождь 9/9 600 м
[Cb calv]
+6.6 +1.7 71 +2 +3 1013.5 958.1
15 13.06 З 4
{12}
50 км 10/8 600 м
[Cb calv Ci ing]
+6.6 +0.4 65 +3 +3 1014.0 958.6 +8.8 0.3
18 13.06 СЗ 2
{11}
н/о н/о +3.7 +1.3 84 +1 +1 1015.6 959.5
21 13.06 З 3 н/о н/о +2.0 +0.4 89 -2 -2 1014.8 958.5
00 14.06 З 4 50 км 8/8 600 м
[Sc]
+3.1 +0.8 85 -2 -2 1013.2 957.1
03 14.06 З 4 50 км 1/0 2000 м
[Ac lent]
+6.6 +1.2 68 +3 +6 1011.9 956.6 +1.7
06 14.06 З 5-10
{12}
50 км 4/4 600 м
[Cu hum]
+10.0 -1.1 46 +7 +11 1010.2 955.6
09 14.06 СЗ 5-10
{13}
50 км 6/6 600 м
[Cu hum]
+11.9 -2.5 37 +10 +13 1009.0 954.8
12 14.06 СЗ 4
{12}
50 км 6/6 600 м
[Cu hum]
+12.3 -3.7 33 +11 +13 1008.5 954.4
15 14.06 СЗ 3
{11}
50 км 9/8 600 м
[Cu hum Ci sp]
+11.3 -3.7 35 +10 +10 1008.3 954.0 +13.5
18 14.06 СВ 1 50 км 3/0
[Ci fib]
+4.1 +0.2 76 +3 +3 1009.8 954.1
21 14.06 С 2 50 км ясно +1.3 -1.1 84 -2 -2 1010.6 954.3
00 15.06 С 2 50 км ясно +0.1 -1.1 92 -4 -3 1011.0 954.5
03 15.06 СЗ 1 50 км ясно +7.4 +1.1 64 +7 +12 1009.7 954.7 -0.2
06 15.06 СЗ 2 50 км 3/0
[Ci fib]
+10.4 -1.5 43 +10 +21 опасность
простуды
1008.6 954.1
09 15.06 СЗ 4
{10}
50 км 6/4 600 м
[Cu hum Ci fib]
+13.1 -1.9 35 +12 +17 1007.3 953.4
12 15.06 З 5
{10}
50 км 9/9 600 м
[Sc]
+13.0 +0.2 41 +11 +12 1006.8 952.9
15 15.06 З 4
{10}
50 км 10/3 600 м
[Sc Ac trans Ci fib]
+12.1 +1.6 49 +10 +11 1006.0 952.0 +13.8
18 15.06 СЗ 3 10 км слаб. ливневой дождь 10/10 600 м
[Cb calv]
+8.1 +5.6 84 +5 +5 1006.2 951.5
21 15.06 З 4 20 км {ливн. осадки} 9/9 600 м
[Cb calv]
+7.5 +6.0 90 +4 +4 1004.5 949.8
00 16.06 З 3 10 км слаб. ливневой дождь 10/10 600 м
[Cb calv]
+6.5 +5.3 92 +3 +3 1003.6 948.8
03 16.06 СЗ 3 50 км {ливн. осадки} 10/10 600 м
[Sc]
+6.8 +4.5 85 +4 +4 1003.4 948.6 +6.3 3
06 16.06 СЗ 4 50 км {ливн. осадки} 8/8 600 м
[Sc]
+10.7 +3.3 60 +9 +10 1002.9 948.9
09 16.06 СЗ 5-10
{10}
50 км {ливн. осадки} 9/8 600 м
[Cb calv Ci sp]
+11.0 +2.5 56 +9 +10 1003.4 949.4
12 16.06 СЗ 4
{11}
50 км в посл. час ливневой дождь 8/5 600 м
[Sc diur, vesp Ci fib]
+10.4 +2.5 58 +8 +10 1004.0 949.9
15 16.06 СЗ 3 50 км {ливн. осадки} 6/6 600 м
[Sc]
+9.0 +2.4 63 +7 +7 1005.4 950.9 +11.7 0.3
18 16.06 СЗ 1 50 км {ливн. осадки} 4/4 600 м
[Sc]
+5.0 +2.1 81 +4 +4 1007.3 952.0
21 16.06 З 3 50 км ясно +4.1 +1.6 84 0 0 1007.3 951.7
00 17.06 В 1 50 км 3/0
[Ci fib]
+1.4 +0.6 94 -1 -0 1008.2 952.0
03 17.06 ЮЗ 2 50 км 10/8 600 м
[Sc Ci fib]
+5.6 +3.3 85 +3 +4 1006.9 951.7 +0.5 0.3
06 17.06 ЮЗ 4 50 км 10/10 600 м
[Sc]
+8.2 +4.6 78 +5 +5 1005.5 950.9
09 17.06 ЮЗ 4
{14}
50 км в посл. час ливневой дождь 10/10 600 м
[Sc]
+9.3 +6.1 80 +6 +6 1003.6 949.3
12 17.06 ЮЗ 4
{10}
4000 м слаб. ливневой дождь 10/10 600 м
[Cb calv]
+8.5 +6.6 88 +5 +5 1003.3 948.9
15 17.06 З 3 50 км {ливн. осадки} 9/9 600 м
[Sc]
+8.6 +6.5 87 +6 +6 1003.5 949.1 +10.5 3
18 17.06 СЗ 2 50 км {ливн. осадки} 3/1 600 м
[Sc Ac lent]
+6.5 +4.8 89 +4 +4 1005.0 950.1
21 17.06 СЗ 3 50 км 3/0
[Ci fib]
+5.1 +2.7 84 +2 +2 1006.5 951.2
00 18.06 СЗ 2 50 км ясно +3.5 +1.6 87 +1 +1 1007.8 952.2
03 18.06 СЗ 3 50 км 3/1 600 м
[Sc Ac lent Ci sp]
+7.0 +3.2 77 +4 +7 1008.5 953.5 +1.9
06 18.06 СЗ 4
{10}
50 км 6/6 600 м
[Cu hum]
+11.1 +1.6 52 +9 +13 1007.7 953.5
09 18.06 СЗ 5-10
{11}
50 км 8/8 600 м
[Cu hum]
+14.0 +2.5 46 +13 +14 1007.3 953.6
12 18.06 З 6
{12}
50 км 9/9 600 м
[Sc]
+14.1 +4.2 51 +12 +13 1006.9 953.3
15 18.06 СЗ 3
{10}
50 км 9/9 600 м
[Sc]
+14.2 +5.4 55 +13 +14 1006.8 953.2 +15.1
18 18.06 ЮЗ 1 50 км 4/3 600 м
[Sc Ci fib]
+10.6 +5.1 69 +10 +10 1007.8 953.5
21 18.06 ЮЗ 3 50 км 9/0
[Ac lent]
+9.2 +4.6 73 +7 +7 1008.0 953.5
00 19.06 З 1 50 км 9/9 600 м
[Sc]
+9.1 +5.4 78 +9 +9 1008.6 954.0
03 19.06 ЮЗ 3 50 км в посл. час ливневой дождь 10/10 600 м
[Sc]
+10.1 +6.2 77 +8 +8 1008.1 953.7 +8.3 0.3
06 19.06 З 4 50 км {ливн. осадки} 9/9 600 м
[Cb calv]
+13.4 +7.0 65 +12 +13 1007.7 953.9
09 19.06 З 5
{10}
50 км 10/10 600 м
[Sc]
+15.6 +8.7 63 +14 +14 1007.7 954.4
12 19.06 З 6
{12}
50 км 8/4 600 м
[Cu Sc Ac trans]
+17.4 +9.8 61 +17 +18 1006.8 953.9
15 19.06 З 4
{10}
50 км 6/3 600 м
[Cu hum Ac trans Ci fib]
+17.8 +9.4 58 +18 +18 1007.2 954.3 +18.5
18 19.06 З 3 50 км 8/4 600 м
[Sc Ci]
+14.7 +9.7 72 +14 +14 1008.5 955.0
21 19.06 З 2 50 км 10/0
[Ac lent Ci sp]
+13.6 +9.7 77 +13 +13 1008.8 955.1
00 20.06 Ю 1 50 км 9/0
[Ac trans]
+10.6 +9.6 94 +10 +10 1010.0 955.6
03 20.06 Ю 2 10 км слаб. ливневой дождь 9/9 600 м
[Cb calv]
+12.4 +11.3 93 +11 +12 1010.3 956.3 +9.7 0.3
06 20.06 ЮЗ 4 50 км {ливн. осадки} 6/6 600 м
[Cu Sc]
+19.0 +12.2 65 +20 +23 1008.3 955.6

 

Местоположение метеостанции Бисер (Пермский край, Россия): широта 58.52 долгота 58.85 высота над уровнем моря 464 м.

В архиве по умолчанию представлена погода в Бисере за последнюю неделю. Архивные данные за месяц целиком и за предыдущие месяцы, начиная с января 2011 года, Вы можете получить, выбрав интересующий диапазон дат из раскрывающегося списка и нажав кнопку "Ввод!".


*Определитесь, кто Вы:
робот инопланетянин человек

Внимание! Время в таблицах - всемирное. Для получения местного времени необходимо прибавить поправку, которая равна 5 ч.

Смотрите также архив погоды в соседних городах и на ближайших метеорологических станциях:

Погода в Качканаре (Свердловская область, Россия) (43 км)
Погода в Кушве (Свердловская область, Россия) (57 км)
Погода в Лысьве (Пермский край, Россия) (77 км)
Погода в Кыне (Пермский край, Россия) (78 км)
Погода в Губахе (Пермский край, Россия) (89 км)
Погода в Нижнем Тагиле (Свердловская область, Россия) (101 км)
Погода в Висиме (Свердловская область, Россия) (103 км)
Погода в Кытлыме (Свердловская область, Россия) (111 км)
Погода в Верхотурье (Свердловская область, Россия) (118 км)
Погода в Шамарах (Свердловская область, Россия) (135 км)

Пояснения к столбцам:

Ветер - указаны скорость ветра в м/с - средняя за 10 мин, порывы в срок и между сроками (в фигурных скобках) и направление, откуда дует ветер: С - северный, СВ - северо-восточный, В - восточный, ЮВ - юго-восточный, Ю - южный, ЮЗ - юго-западный, З - западный, СЗ - северо-западный.
Видимость - горизонтальная дальность видимости в метрах или километрах. При видимости от 1 до 10 км при отсутствии осадков обычно наблюдается дымка, при ухудшении видимости до 1 км и менее - туман. В сухую погоду видимость может ухудшаться дымом, пылью или мглою.
Явления - указаны атмосферные явления, наблюдавшиеся в срок или в последний час перед сроком; фигурными скобками обозначены явления, наблюдавшиеся между сроками (за 1-3 часа до срока); квадратными скобками обозначены град или гололедные отложения с указанием их диаметра в мм.
Облачность - указаны через наклонную черту общая и нижняя облачность в баллах и высота нижней границы облаков в метрах; квадратными скобками обозначены формы облаков: Ci - перистые, Cs - перисто-слоистые, Cc - перисто-кучевые, Ac - высококучевые, As - высокослоистые, Sc - слоисто-кучевые, Ns - слоисто-дождевые, Cu - кучевые, Cb - кучево-дождевые. Подробнее классификацию облаков см. в Атласе облаков (PDF).
T - Температура воздуха - температура, измеренная на высоте 2 м над землей.
Td - Температура точки росы - температура, при понижении до которой содержащийся в воздухе водяной пар достигнет насыщения.
f - Относительная влажность воздуха - влажноcть воздуха, измеренная на высоте 2 м над землей.
Te - Эффективная температура - температура, которую ощущает одетый по сезону человек в тени. Характеристика душности погоды. При расчете учитывается влияние влажности воздуха и скорости ветра на теплоощущения человека.
Tes - Эффективная температура на солнце - температура, которую ощущает человек, с поправкой на солнечный нагрев. Характеристика знойности погоды. Зависит от высоты солнца над горизонтом, облачности и скорости ветра. Ночью, в пасмурную погоду, а также при ветре 12 м/с и более поправка равна нулю.
P - Атмосферное давление - приведенное к уровню моря атмосферное давление.
Po - Атмосферное давление - измеренное на уровне метеостанции атмосферное давление.
Tmin - Минимальная температура - минимум температуры воздуха на высоте 2 м над землей.
Tmax - Максимальная температура - максимум температуры воздуха на высоте 2 м над землей.
R - Количество осадков - Количество выпавших осадков за период времени, мм. При наведении курсора мыши на число - период времени, за который выпало указанное количество осадков.
R24 - Количество осадков - Количество выпавших осадков за 24 часа, мм.
S - Снежный покров - Высота снежного покрова, см. При наведении курсора мыши на число - состояние снежного покрова и степень покрытия местности в баллах.